Reykjavik Airport

Airport
ICAO code: 
BIRK
IATA Code: 
RKV
Summary
ICAO Region: 
NAT
Territory: 
Location: 
Reykjavik, Hofuoborgarsvaoio
Serving: 
Reykjavik
Elevation: 
48 ft
Coordinates: 
Aerial View: 
64° 7' 48" N, 21° 56' 26.002" W
Airport WX: 
Volcanic Ash
Metar
Observation
BIRK 241500Z 13008KT 9999 FEW024 BKN033 02/M02 Q1014
Station
Reykjavik
Date/Time
2022-01-24 15:00:00
Wind direction
130°
Wind speed
08 kts
Lowest cloud amount
few clouds
Temperature
2°C
Dew point
-2°C
Humidity
74%
QNH
1014 hPa
Weather condition
n/a

Description

International airport serving the Icelandic capital, Reykjavik.

Climatology

Subpolar Oceanic climate (Köppen climate classification Cfc) - uniform precipitation distribution, temperatures are moderated by the proximity of the ocean and warm currents - cool summers and comparatively mild winters.

Runways

Designator Length Width Surface Rops
6/24 960 30 ASP Yes/Yes
13/31 1230 45 ASP Yes/Yes
1/19 1567 45 ASP Yes/Yes
Airport map: 
Aerial View: 

Accidents and Serious Incidents at or in the vicinity of BIRK

SKYbrary Partners:

Safety knowledge contributed by: